Flag for Germany Weather past 2 weeks in Schleswig, Schleswig-Holstein, Germany

Now
49 °F

Partly sunny.


Feels Like: 47 °F
Forecast: 40 / 61 °F
Wind: 5 mph from East

Location: Schleswig


UV Index: 3 (Moderate)

Visibility: 13 mi


Pressure: 30.09 "Hg

Humidity: 85%

Dew point: 44 °F

Location of SchleswigLocation

Historic Weather in Schleswig

°F

Schleswig temperature yesterday

Maximum temperature yesterday: 49 °F (at 7:00 PM)
Minimum temperature yesterday: 44 °F (at 7:00 AM)
Average temperature yesterday: 46 °F

Past Weeks' High & Low Weather Summary

 TemperatureHumidityPressure
High63 °F (Apr 20, 4:00 PM)100% (Apr 12, 5:00 AM)30.47 "Hg (Apr 12, 5:00 AM)
Low33 °F (Apr 16, 6:00 AM)31% (Apr 16, 12:00 PM)29.63 "Hg (Apr 14, 7:00 AM)
Average48 °F79%30.05 "Hg
* Reported Apr 10 9:00 AM — Apr 25 9:00 AM, Schleswig, Weather by CustomWeather, © 2014

Note: Actual official high and low records may vary slightly from our data, if they occured in-between our weather recording intervals... More about our weather records

Advertising

Historic Weather Conditions — Data for Previous 24 hours

 ConditionsComfort  
Time TempWeatherWind HumidityBarometerVisibility
9:00 AM
Apr 25
49 °FPartly sunny.5 mph85%30.09 "Hg12 mi
8:00 AM47 °FPartly sunny.3 mph87%30.10 "Hg11 mi
7:00 AM44 °FOvercast.3 mph93%30.11 "Hg8 mi
6:00 AM43 °FOvercast.2 mph95%30.10 "Hg9 mi
4:00 AM44 °FLow clouds.3 mph93%30.12 "Hg7 mi
3:00 AM46 °FLow clouds.5 mph92%30.12 "Hg9 mi
2:00 AM46 °FLow clouds.3 mph94%30.13 "Hg6 mi
1:00 AM46 °FDrizzle. Low clouds.3 mph96%30.16 "Hg4 mi
12:00 AM46 °FLow clouds.3 mph92%30.17 "Hg7 mi
11:00 PM
Apr 24
47 °FLow clouds.5 mph91%30.18 "Hg9 mi
10:00 PM47 °FLow clouds.5 mph92%30.17 "Hg9 mi
9:00 PM47 °FLow clouds.5 mph90%30.17 "Hg12 mi
8:00 PM48 °FOvercast.6 mph88%30.17 "Hg16 mi
7:00 PM49 °FOvercast.6 mph85%30.17 "Hg16 mi
6:00 PM49 °FOvercast.5 mph86%30.19 "Hg14 mi
5:00 PM49 °FOvercast.6 mph85%30.19 "Hg14 mi
4:00 PM49 °FLow clouds.6 mph85%30.20 "Hg14 mi
3:00 PM48 °FLow clouds.6 mph88%30.22 "Hg11 mi
2:00 PM48 °FLow clouds.6 mph88%30.22 "Hg11 mi
1:00 PM47 °FLow clouds.5 mph88%30.22 "Hg11 mi
12:00 PM46 °FLow clouds.6 mph88%30.23 "Hg12 mi
10:00 AM45 °FLow clouds.6 mph90%30.23 "Hg16 mi
Weather by CustomWeather, © 2014

See weather overview